Regional Weather Roundup
Issued by NWS

Home | Current Version | Previous Version | Graphics & Text | Print | Product List | Glossary On
Versions: 1 2 3 4 5 6 7 8 9 10 11 12 13 14 15 16 17 18 19 20 21 22 23 24 25 26 27 28 29 30 31 32 33 34 35 36 37 38 39 40 41 42 43 44 45 46 47 48 49 50
000
ASUS44 KMEG 300300
RWRTN
TENNESSEE HOURLY STATE WEATHER ROUNDUP
NATIONAL WEATHER SERVICE MEMPHIS TN
1000 PM CDT MON JUN 29 2015

TNZ002-004-019-021-049-052-054-088>092-300400-
WEST TENNESSEE

CITY           SKY/WX    TMP DP  RH WIND       PRES   REMARKS
MEMPHIS INTL   MOCLDY    83  70  64 SW7       29.89R
NWS MEMPHIS      N/A     75 N/A N/A MISG        N/A
JACKSON        PTCLDY    77  72  84 SW6       29.89R
DYERSBURG        N/A    N/A N/A N/A MISG        N/A
PARIS          MOCLDY    70  68  94 CALM      29.89S
LEXINGTON      PTCLDY    75  72  88 S5        29.89R
$$

TNZ008-025-027-028-033-062-065-066-300400-
NORTH MIDDLE TENNESSEE

CITY           SKY/WX    TMP DP  RH WIND       PRES   REMARKS
NASHVILLE      TSTM      72  71  97 SW8       29.93R
CLARKSVILLE    MOCLDY    72  69  90 S5        29.90R
COOKEVILLE     PTCLDY    75  72  88 SW5       29.93R
CROSSVILLE     CLOUDY    74  64  71 CALM      29.99R
$$

TNZ061-075-076-078-094-096-097-300400-
SOUTH MIDDLE TENNESSEE

CITY           SKY/WX    TMP DP  RH WIND       PRES   REMARKS
FAYETTEVILLE   PTCLDY    73  64  73 CALM      29.95R
TULLAHOMA      MOCLDY    73  64  73 CALM      29.97R
WINCHESTER     MOCLDY    73  66  78 CALM      29.96R
COLUMBIA       CLEAR     72  70  94 SW3       29.91R
SHELBYVILLE    MOCLDY    75  70  83 CALM      29.95R
$$

TNZ017-018-042-046-047-300400-
NORTHEAST TENNESSEE

CITY           SKY/WX    TMP DP  RH WIND       PRES   REMARKS
TRI CITIES     TSTM      75  63  66 W7        29.97S
ELIZABETHTON   MOCLDY    66  63  88 CALM      29.99S
$$

TNZ012-013-036-069-073-074-300400-
CENTRAL EAST TENNESSEE

CITY           SKY/WX    TMP DP  RH WIND       PRES   REMARKS
KNOXVILLE      NOT AVBL
OAK RIDGE      LGT RAIN  71  63  75 VRB5      29.99R
GATLINBURG     CLEAR     72  61  68 NE5       29.94S
$$

TNZ083-085-099-300400-
SOUTHEAST TENNESSEE

CITY           SKY/WX    TMP DP  RH WIND       PRES   REMARKS
CHATTANOOGA    PTCLDY    78  64  61 S7        29.95R
$$

SKY/WX REPORTED AS FAIR MEANS FEW OR NO CLOUDS BELOW
12 THOUSAND FEET.




USA.gov is the U.S. government's official web portal to all federal, state and local government web resources and services.